Regional Weather Roundup
Issued by NWS

Home | Current Version | Previous Version | Text Only | Print | Product List | Glossary On
Versions: 1 2 3 4 5 6 7 8 9 10 11 12 13 14 15 16 17 18 19 20 21 22 23 24 25 26 27 28 29 30 31 32 33 34 35 36 37 38 39 40 41 42 43 44 45 46 47 48 49 50
146
ASUS43 KLSX 311407
RWRMO

WEATHER SUMMARY FOR MISSOURI
NATIONAL WEATHER SERVICE SPRINGFIELD MO
900 AM CDT TUE MAY 31 2016

NOTE: "FAIR" INDICATES FEW OR NO CLOUDS BELOW 12,000 FEET WITH NO
       SIGNIFICANT WEATHER AND/OR OBSTRUCTIONS TO VISIBILITY.
       CURRENT SKY AND/OR WEATHER CONDITIONS ARE NOT AVAILABLE FOR
       CHILLICOTHE AND FARMINGTON.

MOZ001>031-035>038-043-044-053-054-311500-
...NORTHERN AND WESTERN MISSOURI...

CITY           SKY/WX    TMP DP  RH WIND       PRES   REMARKS
KANSAS CTY INT CLOUDY    68  62  81 SE9       29.94R
KANSAS C DTWN  CLOUDY    70  63  78 S8        29.94R
LEE`S SUMMIT   CLOUDY    68  63  84 S7        29.96R
ST JOSEPH      CLOUDY    70  63  78 SE7       29.94R
CHILLICOTHE      N/A     68  64  87 SE6       29.97F
KIRKSVILLE     CLOUDY    67  63  87 CALM      29.98F

$$
MOZ066>068-077>081-088>096-101>105-311500-
...SOUTHWEST MISSOURI...

CITY           SKY/WX    TMP DP  RH WIND       PRES   REMARKS
SPRINGFIELD    CLOUDY    71  62  73 S7        29.98R
JOPLIN         CLOUDY    71  66  84 SW5       29.96R
BRANSON        CLOUDY    66  64  94 SE7       30.00R

$$
MOZ032>034-039>042-045>050-055>058-069>072-311500-
...CENTRAL MISSOURI...

CITY           SKY/WX    TMP DP  RH WIND       PRES   REMARKS
COLUMBIA       CLOUDY    67  63  87 SE8       29.99R
JEFFERSON CITY CLOUDY    67  63  87 SE7       29.98S
ROLLA          CLOUDY    67  61  81 CALM      29.97F
SEDALIA        CLOUDY    68  63  84 SE3       29.98S
WARRENSBURG    MOSUNNY   68  64  88 E7        29.93F

$$
MOZ051-052-059>065-311500-
...EAST CENTRAL MISSOURI...

CITY           SKY/WX    TMP DP  RH WIND       PRES   REMARKS
ST LOUIS INTL  LGT RAIN  72  64  76 CALM      30.00R
SPIRIT OF STL  PTSUNNY   68  66  93 W3        29.98S
ST CHARLES     CLOUDY    70  66  87 CALM      29.99S

$$
MOZ072>076-082>087-097>100-106>115-311500-
...SOUTH CENTRAL AND SOUTHEAST MISSOURI...

CITY           SKY/WX    TMP DP  RH WIND       PRES   REMARKS
CAPE GIRARDEAU CLOUDY    73  67  81 SW9       29.99R
FARMINGTON     CLOUDY    70  63  78 NE6       30.01S
POPLAR BLUFF   CLOUDY    70  67  90 CALM      29.98S
WEST PLAINS    LGT RAIN  66  62  87 SE3       30.03R

$$



USA.gov is the U.S. government's official web portal to all federal, state and local government web resources and services.